This is the latest recevied weather packets stored in our database for station/object K9ABJ. If no packets are shown the sender has not sent any weather packets the latest 10 day(s).
| Time | Temp. | Humidity | Pressure | Rain* | Wind** | Luminosity | Snow |
|---|---|---|---|---|---|---|---|
| 1788105144 | 22.78° C | 88% | 1020.9 hPa | 0 mm | - | 72 W/m² | - |
| 1788104839 | 22.22° C | 88% | 1020.9 hPa | 0 mm | - | 84 W/m² | - |
| 1788104535 | 22.22° C | 87% | 1021.1 hPa | 0 mm | - | 89 W/m² | - |
| 1788104232 | 22.22° C | 88% | 1021 hPa | 0 mm | - | 71 W/m² | - |
| 1788103932 | 22.22° C | 87% | 1020.8 hPa | 0 mm | - | 57 W/m² | - |
| 1788103630 | 22.78° C | 87% | 1021 hPa | 0 mm | - | 62 W/m² | - |
| 1788103330 | 22.22° C | 88% | 1020.7 hPa | 0 mm | - | 83 W/m² | - |
| 1788103025 | 22.22° C | 88% | 1020.9 hPa | 0 mm | - | 100 W/m² | - |
| 1788102724 | 22.22° C | 88% | 1020.7 hPa | 0 mm | - | 117 W/m² | - |
| 1788102420 | 22.78° C | 89% | 1020.8 hPa | 0 mm | - | 127 W/m² | - |
| 1788102120 | 22.22° C | 88% | 1020.6 hPa | 0 mm | - | 125 W/m² | - |
| 1788101819 | 22.22° C | 89% | 1020.8 hPa | 0 mm | - | 84 W/m² | - |
| 1788101515 | 21.67° C | 89% | 1020.7 hPa | 0 mm | - | 64 W/m² | - |
| 1788101210 | 21.67° C | 89% | 1020.8 hPa | 0 mm | - | 64 W/m² | - |
| 1788100906 | 21.67° C | 90% | 1020.8 hPa | 0 mm | - | 69 W/m² | - |
| 1788100602 | 21.67° C | 89% | 1020.6 hPa | 0 mm | - | 67 W/m² | - |
| 1788100300 | 21.11° C | 89% | 1020.4 hPa | 0 mm | - | 46 W/m² | - |
| 1788099996 | 21.67° C | 90% | 1020.4 hPa | 0 mm | - | 43 W/m² | - |
| 1788099695 | 21.11° C | 89% | 1020.4 hPa | 0 mm | - | 44 W/m² | - |
| 1788099391 | 21.11° C | 88% | 1020.1 hPa | 0 mm | - | 38 W/m² | - |
| 1788099086 | 21.11° C | 88% | 1020 hPa | 0 mm | - | 35 W/m² | - |
| 1788098781 | 21.11° C | 88% | 1019.9 hPa | 0 mm | - | 37 W/m² | - |
| 1788098481 | 21.11° C | 88% | 1019.6 hPa | 0 mm | - | 38 W/m² | - |
| 1788098181 | 21.11° C | 88% | 1019.6 hPa | 0 mm | - | 44 W/m² | - |
| 1788097876 | 21.11° C | 88% | 1019.4 hPa | 0 mm | - | 42 W/m² | - |
* Rain latest hour (hover to see other rain measurements)
** Current wind speed in m/s (hover to see current wind gust speed)